Pella Municipal Airport
Tuesday 9:15 PM
Temperature67° (80°/58°)
Dew Point49°
Relative Humidity52
%
Visibility10
mi
Pressure1005.4
mb
Wind DirectionN
360°
Wind Speed5
mph
Precipitation Today0.00"

Last 30 Observations

Time PresWx Temp DP Feels RH% Vsby Pressure Ceiling Direction Speed 1h Precip
8:55 PM 71° 52° 51
%
10
mi
1005.1
mb
NNW
330°
6
mph
0.00"
8:35 PM 71° 57° 61
%
10
mi
1004.8
mb
W
260°
3
mph
0.00"
8:15 PM 72° 57° 59
%
10
mi
1004.4
mb
WNW
290°
7
mph
0.00"
7:55 PM 73° 57° 56
%
10
mi
1004.1
mb
SW
230°
5
mph
0.00"
7:35 PM 75° 57° 54
%
10
mi
1003.7
mb
SW
220°
6
mph
0.00"
7:15 PM 77° 57° 50
%
10
mi
1003.7
mb
SW
230°
9
mph
0.00"
6:55 PM 78° 57° 48
%
10
mi
1003.7
mb
SW
220°
8
mph
0.00"
6:35 PM 79° 57° 46
%
10
mi
1003.7
mb
SW
230°
7
mph
0.00"
6:15 PM 80° 56° 45
%
10
mi
1004.1
mb
WSW
240°
7
mph
0.00"
5:55 PM 80° 57° 46
%
10
mi
1004.1
mb
WSW
250°
8
mph
0.00"
5:35 PM 79° 57° 47
%
10
mi
1004.1
mb
SW
230°
9
mph
0.00"
5:15 PM 79° 57° 47
%
10
mi
1004.1
mb
WSW
240°
9
mph
0.00"
4:55 PM 79° 57° 48
%
10
mi
1004.1
mb
W
260°
9
mph
0.00"
4:35 PM 78° 58° 49
%
10
mi
1004.1
mb
W
260°
9
mph
0.00"
4:15 PM 79° 58° 49
%
10
mi
1004.1
mb
WSW
250°
10
mph
0.00"
3:55 PM 78° 59° 52
%
10
mi
1004.4
mb
W
270°
10
mph
0.00"
3:35 PM 78° 58° 52
%
10
mi
1004.1
mb
WSW
250°
11
mph
0.00"
3:15 PM 76° 59° 54
%
10
mi
1004.4
mb
SW
220°
10
mph
0.00"
2:55 PM 76° 60° 57
%
10
mi
1005.1
mb
WSW
240°
9
mph
0.00"
2:35 PM 75° 60° 59
%
10
mi
1005.4
mb
WSW
240°
13
mph
0.00"
2:15 PM 74° 60° 61
%
10
mi
1005.8
mb
SW
220°
13
mph
0.00"
1:55 PM 73° 59° 63
%
10
mi
1005.8
mb
WSW
240°
13
mph
0.00"
1:35 PM 73° 60° 64
%
10
mi
1006.1
mb
W
260°
11
mph
0.00"
1:15 PM 71° 60° 67
%
10
mi
1006.1
mb
WSW
250°
9
mph
0.00"
12:55 PM 71° 60° 69
%
10
mi
1006.1
mb
WSW
240°
9
mph
0.00"
12:35 PM 70° 60° 70
%
10
mi
1006.1
mb
SW
220°
11
mph
0.00"
12:15 PM 68° 59° 73
%
10
mi
1006.4
mb
1,600
ft
WSW
250°
14
mph
0.00"
11:55 AM 68° 59° 73
%
10
mi
1006.8
mb
1,400
ft
SW
230°
13
mph
0.00"
11:35 AM 68° 60° 74
%
10
mi
1007.1
mb
1,200
ft
SW
230°
11
mph
0.00"
11:15 AM 67° 59° 77
%
10
mi
1007.1
mb
1,200
ft
SSW
200°
13
mph
0.00"